STARLINK-2699

operational
NORAD ID: 48433 Int'l Des: 2021-040 Owner: SPXS Country: US Constellation: starlink
LEOCIRCULARSTARLINK_TYPE

STARLINK-2699について

説明を読み込み中...

リアルタイム位置

3D地球を読み込み中...

次回通過

高度履歴

Altitude vs Time

uPlot chart will show altitude changes over time

軌道要素

1 48433U 21040F 25251.27816322 .00000948 00000-0 82477-4 0 9998
2 48433 53.0529 250.7776 0001484 86.6199 273.4960 15.06411182239541
Epoch: Sep 8, 2025 • Age: 28 hours

現在のステータス

高度 560.4 km
速度 7.58 km/s
衛星直下点 -38.18°S, 48.64°W
打ち上げ日 May 9, 2021
運用期間 4.3 years
タイプ internet

技術仕様

分類 Payload
質量 260.00 kg
乾燥質量 248.00 kg
総質量 260.00 kg
長さ 0.20 m
直径 2.80 m
スパン 9.00 m
形状 Box + pan
製造者 SPXS
バスタイプ Starlink
フェーズステータス In Orbit
所有者/国 SPXS/US

大規模コンステレーション

Loading constellations...